Time,TemperatureF,DewpointF,PressureIn,WindDirection,WindDirectionDegrees,WindSpeedMPH,WindSpeedGustMPH,Humidity,HourlyPrecipIn,Conditions,Clouds,dailyrainin,SoftwareType,DateUTC
2013-08-19 00:01:00,66.2,65.3,29.93,WNW,293,2.0,3.0,97,0.00,,,0.00,meteohub,2013-08-19 07:01:00,
2013-08-19 00:06:00,66.2,65.3,29.93,WNW,293,4.0,4.0,97,0.00,,,0.00,meteohub,2013-08-19 07:06:00,
2013-08-19 00:11:00,66.2,65.3,29.93,WNW,293,2.0,4.0,97,0.00,,,0.00,meteohub,2013-08-19 07:11:00,
2013-08-19 00:16:00,66.2,65.3,29.93,South,180,3.0,4.0,97,0.00,,,0.00,meteohub,2013-08-19 07:16:00,
2013-08-19 00:21:00,66.4,65.5,29.92,West,270,2.0,4.0,97,0.00,,,0.00,meteohub,2013-08-19 07:21:00,
2013-08-19 00:26:00,66.4,65.1,29.92,WNW,293,4.0,4.0,96,0.00,,,0.00,meteohub,2013-08-19 07:26:00,
2013-08-19 00:31:00,66.2,64.9,29.92,WNW,293,3.0,5.0,96,0.00,,,0.00,meteohub,2013-08-19 07:31:00,
2013-08-19 00:36:00,66.2,65.3,29.92,WNW,293,4.0,5.0,97,0.00,,,0.00,meteohub,2013-08-19 07:36:00,
2013-08-19 00:41:00,66.2,65.3,29.92,NW,315,4.0,5.0,97,0.00,,,0.00,meteohub,2013-08-19 07:41:00,
2013-08-19 00:46:00,66.2,65.3,29.91,SW,225,2.0,5.0,97,0.00,,,0.00,meteohub,2013-08-19 07:46:00,
2013-08-19 00:51:00,66.2,64.9,29.91,WNW,293,3.0,5.0,96,0.00,,,0.00,meteohub,2013-08-19 07:51:00,
2013-08-19 00:56:00,66.2,65.3,29.91,West,270,3.0,4.0,97,0.00,,,0.00,meteohub,2013-08-19 07:56:00,
2013-08-19 01:01:00,66.2,65.3,29.91,West,270,3.0,5.0,97,0.00,,,0.00,meteohub,2013-08-19 08:01:00,
2013-08-19 01:06:00,66.0,65.1,29.91,SW,225,1.0,5.0,97,0.00,,,0.00,meteohub,2013-08-19 08:06:00,
2013-08-19 01:11:00,66.0,65.1,29.91,NW,315,3.0,5.0,97,0.00,,,0.00,meteohub,2013-08-19 08:11:00,
2013-08-19 01:16:00,65.8,64.9,29.91,NW,315,2.0,4.0,97,0.00,,,0.00,meteohub,2013-08-19 08:16:00,
2013-08-19 01:21:00,65.8,64.9,29.91,NW,315,1.0,4.0,97,0.00,,,0.00,meteohub,2013-08-19 08:21:00,
2013-08-19 01:26:00,65.8,65.3,29.91,NW,315,1.0,4.0,98,0.00,,,0.00,meteohub,2013-08-19 08:26:00,
2013-08-19 01:31:00,65.8,65.3,29.91,NW,315,3.0,3.0,98,0.00,,,0.00,meteohub,2013-08-19 08:31:00,
2013-08-19 01:36:00,66.0,65.5,29.91,NW,315,2.0,4.0,98,0.00,,,0.00,meteohub,2013-08-19 08:36:00,
2013-08-19 01:41:00,65.8,65.3,29.90,WNW,293,1.0,4.0,98,0.00,,,0.00,meteohub,2013-08-19 08:41:00,
2013-08-19 01:46:00,65.8,65.3,29.91,WNW,293,2.0,4.0,98,0.00,,,0.00,meteohub,2013-08-19 08:46:00,
2013-08-19 01:51:00,66.0,65.5,29.90,West,270,2.0,4.0,98,0.00,,,0.00,meteohub,2013-08-19 08:51:00,
2013-08-19 01:56:00,66.0,65.5,29.91,West,270,1.0,4.0,98,0.00,,,0.00,meteohub,2013-08-19 08:56:00,
2013-08-19 02:01:00,66.0,65.5,29.91,SW,225,2.0,4.0,98,0.00,,,0.00,meteohub,2013-08-19 09:01:00,
2013-08-19 02:06:00,66.0,65.5,29.91,SW,225,2.0,4.0,98,0.00,,,0.00,meteohub,2013-08-19 09:06:00,
2013-08-19 02:11:00,66.2,65.7,29.90,WNW,293,2.0,4.0,98,0.00,,,0.00,meteohub,2013-08-19 09:11:00,
2013-08-19 02:16:00,66.0,65.5,29.90,West,270,3.0,4.0,98,0.00,,,0.00,meteohub,2013-08-19 09:16:00,
2013-08-19 02:21:00,66.0,65.5,29.90,West,270,2.0,4.0,98,0.00,,,0.00,meteohub,2013-08-19 09:21:00,
2013-08-19 02:26:00,66.0,65.5,29.90,West,270,2.0,4.0,98,0.00,,,0.00,meteohub,2013-08-19 09:26:00,
2013-08-19 02:31:00,66.0,65.5,29.90,West,270,1.0,4.0,98,0.00,,,0.00,meteohub,2013-08-19 09:31:00,
2013-08-19 02:36:00,66.0,65.5,29.90,West,270,2.0,4.0,98,0.00,,,0.00,meteohub,2013-08-19 09:36:00,
2013-08-19 02:41:00,66.0,65.5,29.90,WNW,293,3.0,4.0,98,0.00,,,0.00,meteohub,2013-08-19 09:41:00,
2013-08-19 02:46:00,66.0,65.5,29.90,NW,315,2.0,4.0,98,0.00,,,0.00,meteohub,2013-08-19 09:46:00,
2013-08-19 02:51:00,66.0,65.5,29.90,West,270,3.0,4.0,98,0.00,,,0.00,meteohub,2013-08-19 09:51:00,
2013-08-19 02:56:00,66.0,65.5,29.90,WNW,293,2.0,4.0,98,0.00,,,0.00,meteohub,2013-08-19 09:56:00,
2013-08-19 03:01:00,66.0,65.5,29.90,WNW,293,4.0,4.0,98,0.00,,,0.00,meteohub,2013-08-19 10:01:00,
2013-08-19 03:06:00,66.0,65.5,29.89,NW,315,3.0,4.0,98,0.00,,,0.00,meteohub,2013-08-19 10:06:00,
2013-08-19 03:11:00,66.0,65.5,29.89,West,270,2.0,5.0,98,0.00,,,0.00,meteohub,2013-08-19 10:11:00,
2013-08-19 03:16:00,66.0,65.5,29.90,West,270,3.0,5.0,98,0.00,,,0.00,meteohub,2013-08-19 10:16:00,
2013-08-19 03:21:00,66.0,65.5,29.90,West,270,1.0,5.0,98,0.00,,,0.00,meteohub,2013-08-19 10:21:00,
2013-08-19 03:26:00,66.0,65.5,29.90,WNW,293,3.0,4.0,98,0.00,,,0.00,meteohub,2013-08-19 10:26:00,
2013-08-19 03:31:00,66.0,65.5,29.89,WNW,293,3.0,4.0,98,0.00,,,0.00,meteohub,2013-08-19 10:31:00,
2013-08-19 03:36:00,66.0,65.5,29.89,WNW,293,3.0,4.0,98,0.00,,,0.00,meteohub,2013-08-19 10:36:00,
2013-08-19 03:41:00,66.0,65.5,29.89,WNW,293,3.0,4.0,98,0.00,,,0.00,meteohub,2013-08-19 10:41:00,
2013-08-19 03:46:00,66.0,65.5,29.89,WNW,293,2.0,4.0,98,0.00,,,0.00,meteohub,2013-08-19 10:46:00,
2013-08-19 03:51:00,66.0,65.5,29.89,WNW,293,4.0,4.0,98,0.00,,,0.00,meteohub,2013-08-19 10:51:00,
2013-08-19 03:56:00,66.0,65.5,29.89,WNW,293,4.0,4.0,98,0.00,,,0.00,meteohub,2013-08-19 10:56:00,
2013-08-19 04:01:00,66.0,65.5,29.89,West,270,3.0,4.0,98,0.00,,,0.00,meteohub,2013-08-19 11:01:00,
2013-08-19 04:06:00,66.0,65.5,29.90,WNW,293,4.0,5.0,98,0.00,,,0.00,meteohub,2013-08-19 11:06:00,
2013-08-19 04:11:00,66.0,65.5,29.89,WNW,293,3.0,5.0,98,0.00,,,0.00,meteohub,2013-08-19 11:11:00,
2013-08-19 04:16:00,66.0,65.5,29.89,WNW,293,4.0,5.0,98,0.00,,,0.00,meteohub,2013-08-19 11:16:00,
2013-08-19 04:21:00,66.0,65.5,29.89,NW,315,4.0,5.0,98,0.00,,,0.00,meteohub,2013-08-19 11:21:00,
2013-08-19 04:26:00,66.0,65.7,29.89,NW,315,2.0,5.0,99,0.00,,,0.00,meteohub,2013-08-19 11:26:00,
2013-08-19 04:31:00,66.0,65.7,29.90,NW,315,4.0,5.0,99,0.00,,,0.00,meteohub,2013-08-19 11:31:00,
2013-08-19 04:36:00,66.0,65.7,29.90,NW,315,2.0,4.0,99,0.00,,,0.00,meteohub,2013-08-19 11:36:00,
2013-08-19 04:41:00,66.0,65.7,29.90,NW,315,2.0,4.0,99,0.00,,,0.00,meteohub,2013-08-19 11:41:00,
2013-08-19 04:46:00,65.8,65.5,29.90,West,270,3.0,4.0,99,0.00,,,0.00,meteohub,2013-08-19 11:46:00,
2013-08-19 04:51:00,65.8,65.5,29.90,West,270,2.0,4.0,99,0.00,,,0.00,meteohub,2013-08-19 11:51:00,
2013-08-19 04:56:00,66.0,65.7,29.90,West,270,2.0,4.0,99,0.00,,,0.00,meteohub,2013-08-19 11:56:00,
2013-08-19 05:01:00,65.8,65.5,29.90,WNW,293,2.0,4.0,99,0.00,,,0.00,meteohub,2013-08-19 12:01:00,
2013-08-19 05:06:00,65.8,65.5,29.89,WNW,293,2.0,4.0,99,0.00,,,0.00,meteohub,2013-08-19 12:06:00,
2013-08-19 05:11:00,66.0,65.7,29.90,WNW,293,3.0,4.0,99,0.00,,,0.00,meteohub,2013-08-19 12:11:00,
2013-08-19 05:16:00,66.0,65.7,29.89,WNW,293,5.0,5.0,99,0.00,,,0.00,meteohub,2013-08-19 12:16:00,
2013-08-19 05:21:00,66.0,65.7,29.90,WNW,293,4.0,5.0,99,0.00,,,0.00,meteohub,2013-08-19 12:21:00,
2013-08-19 05:26:00,66.0,65.7,29.90,WNW,293,2.0,5.0,99,0.00,,,0.00,meteohub,2013-08-19 12:26:00,
2013-08-19 05:31:00,66.0,65.7,29.90,WNW,293,2.0,5.0,99,0.00,,,0.00,meteohub,2013-08-19 12:31:00,
2013-08-19 05:36:00,66.0,65.7,29.90,NW,315,3.0,4.0,99,0.00,,,0.00,meteohub,2013-08-19 12:36:00,
2013-08-19 05:41:00,66.0,65.7,29.90,NW,315,3.0,4.0,99,0.00,,,0.00,meteohub,2013-08-19 12:41:00,
2013-08-19 05:46:00,66.0,65.7,29.90,West,270,3.0,4.0,99,0.00,,,0.00,meteohub,2013-08-19 12:46:00,
2013-08-19 05:51:00,65.8,65.5,29.90,WNW,293,4.0,4.0,99,0.00,,,0.00,meteohub,2013-08-19 12:51:00,
2013-08-19 05:56:00,66.0,65.7,29.90,WNW,293,3.0,4.0,99,0.00,,,0.00,meteohub,2013-08-19 12:56:00,
2013-08-19 06:01:00,66.0,65.7,29.91,NW,315,0.0,4.0,99,0.00,,,0.00,meteohub,2013-08-19 13:01:00,
2013-08-19 06:06:00,66.0,65.7,29.91,NW,315,2.0,4.0,99,0.00,,,0.00,meteohub,2013-08-19 13:06:00,
2013-08-19 06:11:00,66.0,65.7,29.91,West,270,4.0,5.0,99,0.00,,,0.00,meteohub,2013-08-19 13:11:00,
2013-08-19 06:17:00,66.0,65.7,29.91,NW,315,3.0,5.0,99,0.00,,,0.00,meteohub,2013-08-19 13:17:00,
2013-08-19 06:22:00,66.0,65.7,29.91,West,270,2.0,5.0,99,0.00,,,0.00,meteohub,2013-08-19 13:22:00,
2013-08-19 06:27:00,66.0,65.7,29.91,WNW,293,4.0,4.0,99,0.00,,,0.00,meteohub,2013-08-19 13:27:00,
2013-08-19 06:32:00,66.0,65.7,29.92,West,270,4.0,4.0,99,0.00,,,0.00,meteohub,2013-08-19 13:32:00,
2013-08-19 06:37:00,66.0,65.7,29.92,NW,315,4.0,5.0,99,0.00,,,0.00,meteohub,2013-08-19 13:37:00,
2013-08-19 06:42:00,66.2,65.8,29.92,NW,315,2.0,5.0,99,0.00,,,0.00,meteohub,2013-08-19 13:42:00,
2013-08-19 06:47:00,66.2,65.8,29.92,West,270,4.0,6.0,99,0.00,,,0.00,meteohub,2013-08-19 13:47:00,
2013-08-19 06:52:00,66.2,65.8,29.92,NW,315,5.0,6.0,99,0.00,,,0.00,meteohub,2013-08-19 13:52:00,
2013-08-19 06:57:00,66.2,65.8,29.92,NW,315,5.0,6.0,99,0.00,,,0.00,meteohub,2013-08-19 13:57:00,
2013-08-19 07:02:00,66.2,65.8,29.92,WNW,293,6.0,6.0,99,0.00,,,0.00,meteohub,2013-08-19 14:02:00,
2013-08-19 07:07:00,66.2,65.8,29.93,West,270,4.0,6.0,99,0.00,,,0.00,meteohub,2013-08-19 14:07:00,
2013-08-19 07:12:00,66.2,65.8,29.93,West,270,3.0,6.0,99,0.00,,,0.00,meteohub,2013-08-19 14:12:00,
2013-08-19 07:17:00,66.2,65.8,29.93,NW,315,4.0,6.0,99,0.00,,,0.00,meteohub,2013-08-19 14:17:00,
2013-08-19 07:22:00,66.2,65.8,29.94,WNW,293,4.0,6.0,99,0.00,,,0.00,meteohub,2013-08-19 14:22:00,
2013-08-19 07:27:00,66.2,65.8,29.94,WNW,293,4.0,6.0,99,0.00,,,0.00,meteohub,2013-08-19 14:27:00,
2013-08-19 07:32:00,66.4,66.0,29.94,WNW,293,4.0,6.0,99,0.00,,,0.00,meteohub,2013-08-19 14:32:00,
2013-08-19 07:37:00,66.4,66.0,29.94,NW,315,5.0,6.0,99,0.00,,,0.00,meteohub,2013-08-19 14:37:00,
2013-08-19 07:42:00,66.6,66.2,29.94,SW,225,4.0,6.0,99,0.00,,,0.00,meteohub,2013-08-19 14:42:00,
2013-08-19 07:47:00,66.4,66.0,29.94,NW,315,4.0,6.0,99,0.00,,,0.00,meteohub,2013-08-19 14:47:00,
2013-08-19 07:52:00,66.4,66.0,29.94,West,270,4.0,7.0,99,0.00,,,0.00,meteohub,2013-08-19 14:52:00,
2013-08-19 07:57:00,66.6,66.2,29.94,West,270,2.0,7.0,99,0.00,,,0.00,meteohub,2013-08-19 14:57:00,
2013-08-19 08:02:00,66.6,66.0,29.95,West,270,4.0,7.0,98,0.00,,,0.00,meteohub,2013-08-19 15:02:00,
2013-08-19 08:07:00,66.6,66.0,29.95,WNW,293,2.0,5.0,98,0.00,,,0.00,meteohub,2013-08-19 15:07:00,
2013-08-19 08:12:00,66.7,66.2,29.95,West,270,3.0,4.0,98,0.00,,,0.00,meteohub,2013-08-19 15:12:00,
2013-08-19 08:17:00,66.7,65.8,29.95,West,270,4.0,5.0,97,0.00,,,0.00,meteohub,2013-08-19 15:17:00,
2013-08-19 08:22:00,66.9,66.0,29.95,SW,225,5.0,6.0,97,0.00,,,0.00,meteohub,2013-08-19 15:22:00,
2013-08-19 08:27:00,67.1,65.8,29.95,NW,315,6.0,6.0,96,0.00,,,0.00,meteohub,2013-08-19 15:27:00,
2013-08-19 08:32:00,67.1,65.8,29.95,West,270,5.0,6.0,96,0.00,,,0.00,meteohub,2013-08-19 15:32:00,
2013-08-19 08:37:00,67.3,66.0,29.95,West,270,6.0,7.0,96,0.00,,,0.00,meteohub,2013-08-19 15:37:00,
2013-08-19 08:42:00,67.3,65.8,29.95,NW,315,4.0,7.0,95,0.00,,,0.00,meteohub,2013-08-19 15:42:00,
2013-08-19 08:47:00,67.3,65.8,29.95,WNW,293,7.0,8.0,95,0.00,,,0.00,meteohub,2013-08-19 15:47:00,
2013-08-19 08:52:00,67.6,66.2,29.95,SW,225,2.0,8.0,95,0.00,,,0.00,meteohub,2013-08-19 15:52:00,
2013-08-19 08:57:00,67.8,66.0,29.95,West,270,6.0,7.0,94,0.00,,,0.00,meteohub,2013-08-19 15:57:00,
2013-08-19 09:02:00,67.8,66.0,29.96,West,270,5.0,7.0,94,0.00,,,0.00,meteohub,2013-08-19 16:02:00,
2013-08-19 09:07:00,68.0,66.2,29.95,West,270,4.0,6.0,94,0.00,,,0.00,meteohub,2013-08-19 16:07:00,
2013-08-19 09:12:00,68.0,65.8,29.96,NW,315,7.0,7.0,93,0.00,,,0.00,meteohub,2013-08-19 16:12:00,
2013-08-19 09:18:00,68.2,66.0,29.95,NW,315,5.0,7.0,93,0.00,,,0.00,meteohub,2013-08-19 16:18:00,
2013-08-19 09:23:00,68.2,65.8,29.95,WNW,293,7.0,7.0,92,0.00,,,0.00,meteohub,2013-08-19 16:23:00,
2013-08-19 09:28:00,68.2,65.8,29.95,WNW,293,5.0,7.0,92,0.00,,,0.00,meteohub,2013-08-19 16:28:00,
2013-08-19 09:33:00,68.2,65.8,29.95,NW,315,8.0,8.0,92,0.00,,,0.00,meteohub,2013-08-19 16:33:00,
2013-08-19 09:38:00,68.0,65.7,29.96,WNW,293,7.0,8.0,92,0.00,,,0.00,meteohub,2013-08-19 16:38:00,
2013-08-19 09:43:00,68.0,65.8,29.96,NW,315,6.0,8.0,93,0.00,,,0.00,meteohub,2013-08-19 16:43:00,
2013-08-19 09:48:00,68.2,65.8,29.96,West,270,7.0,8.0,92,0.00,,,0.00,meteohub,2013-08-19 16:48:00,
2013-08-19 09:53:00,68.2,65.8,29.96,NW,315,6.0,8.0,92,0.00,,,0.00,meteohub,2013-08-19 16:53:00,
2013-08-19 09:58:00,68.2,65.5,29.96,WNW,293,6.0,8.0,91,0.00,,,0.00,meteohub,2013-08-19 16:58:00,
2013-08-19 10:03:00,68.4,66.0,29.96,NW,315,5.0,10.0,92,0.00,,,0.00,meteohub,2013-08-19 17:03:00,
2013-08-19 10:08:00,68.2,65.8,29.96,NW,315,4.0,10.0,92,0.00,,,0.00,meteohub,2013-08-19 17:08:00,
2013-08-19 10:13:00,68.0,65.7,29.96,NW,315,7.0,10.0,92,0.00,,,0.00,meteohub,2013-08-19 17:13:00,
2013-08-19 10:18:00,68.0,65.7,29.96,West,270,5.0,8.0,92,0.00,,,0.00,meteohub,2013-08-19 17:18:00,
2013-08-19 10:23:00,68.0,65.7,29.96,NW,315,8.0,9.0,92,0.00,,,0.00,meteohub,2013-08-19 17:23:00,
2013-08-19 10:28:00,67.8,65.5,29.96,NW,315,5.0,9.0,92,0.00,,,0.00,meteohub,2013-08-19 17:28:00,
2013-08-19 10:33:00,68.2,65.5,29.97,WNW,293,8.0,9.0,91,0.00,,,0.00,meteohub,2013-08-19 17:33:00,
2013-08-19 10:38:00,68.2,65.1,29.97,WNW,293,8.0,9.0,90,0.00,,,0.00,meteohub,2013-08-19 17:38:00,
2013-08-19 10:43:00,68.2,65.1,29.97,NW,315,8.0,8.0,90,0.00,,,0.00,meteohub,2013-08-19 17:43:00,
2013-08-19 10:48:00,68.4,65.7,29.97,WNW,293,8.0,8.0,91,0.00,,,0.00,meteohub,2013-08-19 17:48:00,
2013-08-19 10:53:00,68.5,65.1,29.97,NW,315,5.0,9.0,89,0.00,,,0.00,meteohub,2013-08-19 17:53:00,
2013-08-19 10:58:00,68.4,64.9,29.97,NW,315,8.0,9.0,89,0.00,,,0.00,meteohub,2013-08-19 17:58:00,
2013-08-19 11:03:00,68.4,65.3,29.97,NW,315,7.0,9.0,90,0.00,,,0.00,meteohub,2013-08-19 18:03:00,
2013-08-19 11:08:00,68.4,65.3,29.97,WNW,293,5.0,8.0,90,0.00,,,0.00,meteohub,2013-08-19 18:08:00,
2013-08-19 11:13:00,68.7,65.3,29.97,WNW,293,8.0,8.0,89,0.00,,,0.00,meteohub,2013-08-19 18:13:00,
2013-08-19 11:18:00,69.1,65.3,29.96,NW,315,6.0,8.0,88,0.00,,,0.00,meteohub,2013-08-19 18:18:00,
2013-08-19 11:23:00,69.4,65.1,29.96,NW,315,7.0,8.0,86,0.00,,,0.00,meteohub,2013-08-19 18:23:00,
2013-08-19 11:28:00,69.1,65.3,29.96,NW,315,6.0,8.0,88,0.00,,,0.00,meteohub,2013-08-19 18:28:00,
2013-08-19 11:33:00,69.4,65.7,29.96,WNW,293,4.0,11.0,88,0.00,,,0.00,meteohub,2013-08-19 18:33:00,
2013-08-19 11:38:00,69.8,65.5,29.96,NW,315,7.0,11.0,86,0.00,,,0.00,meteohub,2013-08-19 18:38:00,
2013-08-19 11:43:00,69.6,65.3,29.96,NW,315,5.0,8.0,86,0.00,,,0.00,meteohub,2013-08-19 18:43:00,
2013-08-19 11:48:00,69.4,65.1,29.96,WNW,293,7.0,8.0,86,0.00,,,0.00,meteohub,2013-08-19 18:48:00,
2013-08-19 11:53:00,70.0,66.0,29.96,NW,315,4.0,9.0,87,0.00,,,0.00,meteohub,2013-08-19 18:53:00,
2013-08-19 11:58:00,71.1,65.7,29.96,WNW,293,6.0,9.0,83,0.00,,,0.00,meteohub,2013-08-19 18:58:00,
2013-08-19 12:03:00,72.3,66.2,29.96,NW,315,4.0,9.0,81,0.00,,,0.00,meteohub,2013-08-19 19:03:00,
2013-08-19 12:08:00,73.0,65.5,29.96,NW,315,4.0,8.0,77,0.00,,,0.00,meteohub,2013-08-19 19:08:00,
2013-08-19 12:13:00,74.3,65.8,29.96,WNW,293,4.0,6.0,75,0.00,,,0.00,meteohub,2013-08-19 19:13:00,
2013-08-19 12:18:00,75.0,65.3,29.96,North,0,4.0,6.0,72,0.00,,,0.00,meteohub,2013-08-19 19:18:00,
2013-08-19 12:23:00,74.3,65.1,29.96,NW,315,8.0,8.0,73,0.00,,,0.00,meteohub,2013-08-19 19:23:00,
2013-08-19 12:28:00,73.6,66.4,29.96,West,270,3.0,9.0,78,0.00,,,0.00,meteohub,2013-08-19 19:28:00,
2013-08-19 12:33:00,73.2,65.7,29.96,West,270,8.0,9.0,77,0.00,,,0.00,meteohub,2013-08-19 19:33:00,
2013-08-19 12:38:00,72.9,65.7,29.96,NW,315,4.0,9.0,78,0.00,,,0.00,meteohub,2013-08-19 19:38:00,
2013-08-19 12:43:00,73.8,66.0,29.96,North,0,7.0,8.0,77,0.00,,,0.00,meteohub,2013-08-19 19:43:00,
2013-08-19 12:48:00,74.3,65.8,29.95,NW,315,2.0,8.0,75,0.00,,,0.00,meteohub,2013-08-19 19:48:00,
2013-08-19 12:54:00,75.2,66.0,29.95,NW,315,5.0,8.0,73,0.00,,,0.00,meteohub,2013-08-19 19:54:00,
2013-08-19 12:59:00,74.8,66.0,29.95,West,270,5.0,8.0,74,0.00,,,0.00,meteohub,2013-08-19 19:59:00,
2013-08-19 13:04:00,74.5,65.7,29.95,NW,315,6.0,8.0,74,0.00,,,0.00,meteohub,2013-08-19 20:04:00,
2013-08-19 13:09:00,75.2,66.0,29.94,NW,315,8.0,10.0,73,0.00,,,0.00,meteohub,2013-08-19 20:09:00,
2013-08-19 13:14:00,75.6,65.5,29.95,NW,315,10.0,10.0,71,0.00,,,0.00,meteohub,2013-08-19 20:14:00,
2013-08-19 13:19:00,75.0,65.8,29.94,North,0,8.0,10.0,73,0.00,,,0.00,meteohub,2013-08-19 20:19:00,
2013-08-19 13:24:00,75.0,65.8,29.94,WSW,248,8.0,12.0,73,0.00,,,0.00,meteohub,2013-08-19 20:24:00,
2013-08-19 13:29:00,74.1,65.3,29.94,NW,315,8.0,12.0,74,0.00,,,0.00,meteohub,2013-08-19 20:29:00,
2013-08-19 13:34:00,74.3,65.1,29.93,West,270,9.0,12.0,73,0.00,,,0.00,meteohub,2013-08-19 20:34:00,
2013-08-19 13:39:00,73.8,65.3,29.94,West,270,11.0,11.0,75,0.00,,,0.00,meteohub,2013-08-19 20:39:00,
2013-08-19 13:44:00,74.3,65.8,29.94,NW,315,6.0,13.0,75,0.00,,,0.00,meteohub,2013-08-19 20:44:00,
2013-08-19 13:49:00,74.8,65.7,29.93,NW,315,11.0,13.0,73,0.00,,,0.00,meteohub,2013-08-19 20:49:00,
2013-08-19 13:54:00,74.8,65.1,29.93,NW,315,8.0,13.0,72,0.00,,,0.00,meteohub,2013-08-19 20:54:00,
2013-08-19 13:59:00,75.0,65.3,29.93,NW,315,6.0,11.0,72,0.00,,,0.00,meteohub,2013-08-19 20:59:00,
2013-08-19 14:04:00,75.0,65.3,29.93,West,270,8.0,11.0,72,0.00,,,0.00,meteohub,2013-08-19 21:04:00,
2013-08-19 14:09:00,75.4,66.2,29.93,West,270,4.0,11.0,73,0.00,,,0.00,meteohub,2013-08-19 21:09:00,
2013-08-19 14:14:00,75.9,65.5,29.92,West,270,9.0,11.0,70,0.00,,,0.00,meteohub,2013-08-19 21:14:00,
2013-08-19 14:19:00,75.7,65.3,29.93,West,270,8.0,11.0,70,0.00,,,0.00,meteohub,2013-08-19 21:19:00,
2013-08-19 14:24:00,74.7,65.1,29.92,West,270,6.0,11.0,72,0.00,,,0.00,meteohub,2013-08-19 21:24:00,
2013-08-19 14:29:00,75.0,65.3,29.92,West,270,8.0,11.0,72,0.00,,,0.00,meteohub,2013-08-19 21:29:00,
2013-08-19 14:34:00,75.0,65.8,29.92,NW,315,7.0,11.0,73,0.00,,,0.00,meteohub,2013-08-19 21:34:00,
2013-08-19 14:39:00,74.8,65.7,29.91,West,270,5.0,10.0,73,0.00,,,0.00,meteohub,2013-08-19 21:39:00,
2013-08-19 14:44:00,75.0,65.3,29.91,NW,315,6.0,11.0,72,0.00,,,0.00,meteohub,2013-08-19 21:44:00,
2013-08-19 14:49:00,74.5,65.3,29.91,NW,315,10.0,11.0,73,0.00,,,0.00,meteohub,2013-08-19 21:49:00,
2013-08-19 14:54:00,74.5,65.3,29.91,NW,315,8.0,11.0,73,0.00,,,0.00,meteohub,2013-08-19 21:54:00,
2013-08-19 14:59:00,75.4,65.3,29.91,WNW,293,10.0,11.0,71,0.00,,,0.00,meteohub,2013-08-19 21:59:00,
2013-08-19 15:04:00,74.8,64.8,29.90,West,270,9.0,11.0,71,0.00,,,0.00,meteohub,2013-08-19 22:04:00,
2013-08-19 15:09:00,73.9,64.8,29.90,NW,315,10.0,10.0,73,0.00,,,0.00,meteohub,2013-08-19 22:09:00,
2013-08-19 15:14:00,73.9,65.5,29.90,NW,315,8.0,11.0,75,0.00,,,0.00,meteohub,2013-08-19 22:14:00,
2013-08-19 15:19:00,74.5,65.3,29.90,NNW,338,8.0,11.0,73,0.00,,,0.00,meteohub,2013-08-19 22:19:00,
2013-08-19 15:24:00,74.7,65.5,29.90,West,270,10.0,11.0,73,0.00,,,0.00,meteohub,2013-08-19 22:24:00,
2013-08-19 15:30:00,74.8,64.8,29.89,NW,315,11.0,11.0,71,0.00,,,0.00,meteohub,2013-08-19 22:30:00,
2013-08-19 15:35:00,74.1,64.9,29.89,NW,315,11.0,11.0,73,0.00,,,0.00,meteohub,2013-08-19 22:35:00,
2013-08-19 15:40:00,73.8,65.3,29.89,West,270,6.0,11.0,75,0.00,,,0.00,meteohub,2013-08-19 22:40:00,
2013-08-19 15:45:00,74.3,65.1,29.88,West,270,11.0,11.0,73,0.00,,,0.00,meteohub,2013-08-19 22:45:00,
2013-08-19 15:50:00,74.5,65.3,29.89,West,270,10.0,11.0,73,0.00,,,0.00,meteohub,2013-08-19 22:50:00,
2013-08-19 15:55:00,73.9,65.1,29.89,NW,315,11.0,11.0,74,0.00,,,0.00,meteohub,2013-08-19 22:55:00,
2013-08-19 16:00:00,73.8,65.3,29.89,West,270,9.0,11.0,75,0.00,,,0.00,meteohub,2013-08-19 23:00:00,
2013-08-19 16:05:00,74.3,65.5,29.88,West,270,11.0,11.0,74,0.00,,,0.00,meteohub,2013-08-19 23:05:00,
2013-08-19 16:10:00,74.7,65.5,29.89,West,270,10.0,11.0,73,0.00,,,0.00,meteohub,2013-08-19 23:10:00,
2013-08-19 16:15:00,74.1,65.3,29.89,West,270,12.0,12.0,74,0.00,,,0.00,meteohub,2013-08-19 23:15:00,
2013-08-19 16:20:00,72.9,65.3,29.89,West,270,11.0,12.0,77,0.00,,,0.00,meteohub,2013-08-19 23:20:00,
2013-08-19 16:25:00,72.5,65.7,29.88,NW,315,10.0,12.0,79,0.00,,,0.00,meteohub,2013-08-19 23:25:00,
2013-08-19 16:30:00,72.0,65.1,29.88,West,270,11.0,12.0,79,0.00,,,0.00,meteohub,2013-08-19 23:30:00,
2013-08-19 16:35:00,72.3,65.8,29.88,West,270,8.0,14.0,80,0.00,,,0.00,meteohub,2013-08-19 23:35:00,
2013-08-19 16:40:00,72.1,65.3,29.88,WNW,293,11.0,14.0,79,0.00,,,0.00,meteohub,2013-08-19 23:40:00,
2013-08-19 16:45:00,72.3,65.5,29.88,West,270,9.0,14.0,79,0.00,,,0.00,meteohub,2013-08-19 23:45:00,
2013-08-19 16:50:00,72.1,64.9,29.88,West,270,12.0,13.0,78,0.00,,,0.00,meteohub,2013-08-19 23:50:00,
2013-08-19 16:55:00,71.8,64.9,29.88,WNW,293,12.0,13.0,79,0.00,,,0.00,meteohub,2013-08-19 23:55:00,
2013-08-19 17:00:00,72.0,65.1,29.88,West,270,10.0,13.0,79,0.00,,,0.00,meteohub,2013-08-20 00:00:00,
2013-08-19 17:05:00,72.5,65.3,29.88,WNW,293,9.0,12.0,78,0.00,,,0.00,meteohub,2013-08-20 00:05:00,
2013-08-19 17:10:00,72.9,64.8,29.88,NW,315,11.0,12.0,76,0.00,,,0.00,meteohub,2013-08-20 00:10:00,
2013-08-19 17:15:00,72.5,65.3,29.87,West,270,7.0,11.0,78,0.00,,,0.00,meteohub,2013-08-20 00:15:00,
2013-08-19 17:20:00,72.9,65.3,29.87,WNW,293,10.0,12.0,77,0.00,,,0.00,meteohub,2013-08-20 00:20:00,
2013-08-19 17:25:00,72.1,64.9,29.87,NW,315,11.0,12.0,78,0.00,,,0.00,meteohub,2013-08-20 00:25:00,
2013-08-19 17:30:00,72.3,65.1,29.88,WNW,293,8.0,12.0,78,0.00,,,0.00,meteohub,2013-08-20 00:30:00,
2013-08-19 17:35:00,72.3,64.8,29.88,NW,315,8.0,11.0,77,0.00,,,0.00,meteohub,2013-08-20 00:35:00,
2013-08-19 17:40:00,72.1,64.9,29.87,West,270,8.0,11.0,78,0.00,,,0.00,meteohub,2013-08-20 00:40:00,
2013-08-19 17:45:00,72.1,64.6,29.88,West,270,5.0,12.0,77,0.00,,,0.00,meteohub,2013-08-20 00:45:00,
2013-08-19 17:50:00,72.1,64.6,29.88,West,270,10.0,12.0,77,0.00,,,0.00,meteohub,2013-08-20 00:50:00,
2013-08-19 17:55:00,72.1,63.9,29.88,West,270,11.0,11.0,75,0.00,,,0.00,meteohub,2013-08-20 00:55:00,
2013-08-19 18:00:00,71.8,63.9,29.87,WNW,293,10.0,11.0,76,0.00,,,0.00,meteohub,2013-08-20 01:00:00,
2013-08-19 18:05:00,71.4,64.2,29.87,West,270,7.0,11.0,78,0.00,,,0.00,meteohub,2013-08-20 01:05:00,
2013-08-19 18:10:00,71.8,64.2,29.88,WNW,293,11.0,11.0,77,0.00,,,0.00,meteohub,2013-08-20 01:10:00,
2013-08-19 18:15:00,71.6,64.8,29.87,SW,225,7.0,11.0,79,0.00,,,0.00,meteohub,2013-08-20 01:15:00,
2013-08-19 18:20:00,71.6,64.8,29.87,WNW,293,7.0,11.0,79,0.00,,,0.00,meteohub,2013-08-20 01:20:00,
2013-08-19 18:25:00,71.4,65.3,29.87,West,270,6.0,11.0,81,0.00,,,0.00,meteohub,2013-08-20 01:25:00,
2013-08-19 18:30:00,71.6,65.5,29.87,West,270,7.0,11.0,81,0.00,,,0.00,meteohub,2013-08-20 01:30:00,
2013-08-19 18:35:00,71.2,65.5,29.87,West,270,7.0,9.0,82,0.00,,,0.00,meteohub,2013-08-20 01:35:00,
2013-08-19 18:40:00,70.9,65.1,29.87,West,270,7.0,9.0,82,0.00,,,0.00,meteohub,2013-08-20 01:40:00,
2013-08-19 18:45:00,70.7,65.7,29.87,WNW,293,5.0,9.0,84,0.00,,,0.00,meteohub,2013-08-20 01:45:00,
2013-08-19 18:50:00,70.3,65.3,29.87,West,270,8.0,8.0,84,0.00,,,0.00,meteohub,2013-08-20 01:50:00,
2013-08-19 18:55:00,70.0,65.7,29.87,West,270,8.0,8.0,86,0.00,,,0.00,meteohub,2013-08-20 01:55:00,
2013-08-19 19:00:00,69.6,65.7,29.87,West,270,7.0,8.0,87,0.00,,,0.00,meteohub,2013-08-20 02:00:00,
2013-08-19 19:05:00,69.3,65.5,29.87,WNW,293,9.0,9.0,88,0.00,,,0.00,meteohub,2013-08-20 02:05:00,
2013-08-19 19:10:00,68.9,65.5,29.88,West,270,7.0,9.0,89,0.00,,,0.00,meteohub,2013-08-20 02:10:00,
2013-08-19 19:15:00,68.2,65.5,29.88,SW,225,4.0,9.0,91,0.00,,,0.00,meteohub,2013-08-20 02:15:00,
2013-08-19 19:20:00,68.0,65.7,29.88,West,270,11.0,11.0,92,0.00,,,0.00,meteohub,2013-08-20 02:20:00,
2013-08-19 19:25:00,67.8,65.7,29.88,NW,315,4.0,11.0,93,0.00,,,0.00,meteohub,2013-08-20 02:25:00,
2013-08-19 19:30:00,67.6,65.8,29.88,West,270,6.0,11.0,94,0.00,,,0.00,meteohub,2013-08-20 02:30:00,
2013-08-19 19:35:00,67.5,65.7,29.88,West,270,7.0,11.0,94,0.00,,,0.00,meteohub,2013-08-20 02:35:00,
2013-08-19 19:40:00,67.5,66.0,29.88,West,270,4.0,7.0,95,0.00,,,0.00,meteohub,2013-08-20 02:40:00,
2013-08-19 19:45:00,67.5,65.7,29.88,SW,225,2.0,7.0,94,0.00,,,0.00,meteohub,2013-08-20 02:45:00,
2013-08-19 19:50:00,67.5,66.0,29.88,West,270,4.0,7.0,95,0.00,,,0.00,meteohub,2013-08-20 02:50:00,
2013-08-19 19:55:00,67.5,66.0,29.89,West,270,3.0,5.0,95,0.00,,,0.00,meteohub,2013-08-20 02:55:00,
2013-08-19 20:00:00,67.5,66.0,29.88,West,270,2.0,5.0,95,0.00,,,0.00,meteohub,2013-08-20 03:00:00,
2013-08-19 20:05:00,67.3,65.8,29.89,SW,225,2.0,4.0,95,0.00,,,0.00,meteohub,2013-08-20 03:05:00,
2013-08-19 20:10:00,67.1,65.7,29.89,SW,225,2.0,4.0,95,0.00,,,0.00,meteohub,2013-08-20 03:10:00,
2013-08-19 20:15:00,66.9,65.7,29.89,West,270,2.0,4.0,96,0.00,,,0.00,meteohub,2013-08-20 03:15:00,
2013-08-19 20:20:00,66.9,65.7,29.90,West,270,2.0,4.0,96,0.00,,,0.00,meteohub,2013-08-20 03:20:00,
2013-08-19 20:25:00,66.7,65.5,29.90,West,270,0.0,4.0,96,0.00,,,0.00,meteohub,2013-08-20 03:25:00,
2013-08-19 20:30:00,66.7,65.5,29.90,West,270,0.0,2.0,96,0.00,,,0.00,meteohub,2013-08-20 03:30:00,
2013-08-19 20:35:00,66.6,65.3,29.90,West,270,0.0,2.0,96,0.00,,,0.00,meteohub,2013-08-20 03:35:00,
2013-08-19 20:40:00,66.2,64.9,29.91,West,270,0.0,2.0,96,0.00,,,0.00,meteohub,2013-08-20 03:40:00,
2013-08-19 20:45:00,66.0,64.8,29.90,West,270,2.0,2.0,96,0.00,,,0.00,meteohub,2013-08-20 03:45:00,
2013-08-19 20:50:00,66.2,64.9,29.90,NW,315,2.0,3.0,96,0.00,,,0.00,meteohub,2013-08-20 03:50:00,
2013-08-19 20:55:00,66.2,64.8,29.90,NW,315,2.0,3.0,95,0.00,,,0.00,meteohub,2013-08-20 03:55:00,
2013-08-19 21:00:00,66.2,64.4,29.90,North,0,3.0,3.0,94,0.00,,,0.00,meteohub,2013-08-20 04:00:00,
2013-08-19 21:01:00,66.2,64.4,29.90,North,0,3.0,3.0,94,0.00,,,0.00,meteohub,2013-08-20 04:01:00,
2013-08-19 21:06:00,66.2,64.4,29.91,North,0,0.0,4.0,94,0.00,,,0.00,meteohub,2013-08-20 04:06:00,
2013-08-19 21:11:00,66.0,64.2,29.91,North,0,0.0,4.0,94,0.00,,,0.00,meteohub,2013-08-20 04:11:00,
2013-08-19 21:16:00,66.0,64.6,29.90,North,0,0.0,3.0,95,0.00,,,0.00,meteohub,2013-08-20 04:16:00,
2013-08-19 21:21:00,65.8,64.4,29.91,North,0,0.0,2.0,95,0.00,,,0.00,meteohub,2013-08-20 04:21:00,
2013-08-19 21:26:00,65.7,64.2,29.91,North,0,0.0,0.0,95,0.00,,,0.00,meteohub,2013-08-20 04:26:00,
2013-08-19 21:31:00,65.5,63.7,29.91,North,0,0.0,0.0,94,0.00,,,0.00,meteohub,2013-08-20 04:31:00,
2013-08-19 21:36:00,65.3,63.9,29.91,North,0,1.0,2.0,95,0.00,,,0.00,meteohub,2013-08-20 04:36:00,
2013-08-19 21:41:00,65.3,63.9,29.91,North,0,0.0,2.0,95,0.00,,,0.00,meteohub,2013-08-20 04:41:00,
2013-08-19 21:46:00,65.5,64.2,29.91,North,0,2.0,2.0,96,0.00,,,0.00,meteohub,2013-08-20 04:46:00,
2013-08-19 21:51:00,65.5,64.2,29.91,North,0,2.0,3.0,96,0.00,,,0.00,meteohub,2013-08-20 04:51:00,
2013-08-19 21:56:00,65.5,64.2,29.91,North,0,2.0,3.0,96,0.00,,,0.00,meteohub,2013-08-20 04:56:00,
2013-08-19 22:01:00,65.3,64.0,29.91,North,0,2.0,3.0,96,0.00,,,0.00,meteohub,2013-08-20 05:01:00,
2013-08-19 22:06:00,65.3,64.0,29.92,North,0,2.0,4.0,96,0.00,,,0.00,meteohub,2013-08-20 05:06:00,
2013-08-19 22:11:00,65.1,64.0,29.92,North,0,2.0,4.0,96,0.00,,,0.00,meteohub,2013-08-20 05:11:00,
2013-08-19 22:16:00,65.1,64.2,29.92,North,0,2.0,4.0,97,0.00,,,0.00,meteohub,2013-08-20 05:16:00,
2013-08-19 22:21:00,65.1,64.2,29.92,North,0,2.0,3.0,97,0.00,,,0.00,meteohub,2013-08-20 05:21:00,
2013-08-19 22:26:00,65.1,64.2,29.92,North,0,2.0,3.0,97,0.00,,,0.00,meteohub,2013-08-20 05:26:00,
2013-08-19 22:31:00,65.1,64.2,29.92,North,0,3.0,3.0,97,0.00,,,0.00,meteohub,2013-08-20 05:31:00,
2013-08-19 22:36:00,64.9,64.0,29.92,North,0,2.0,3.0,97,0.00,,,0.00,meteohub,2013-08-20 05:36:00,
2013-08-19 22:41:00,64.8,63.9,29.92,North,0,2.0,3.0,97,0.00,,,0.00,meteohub,2013-08-20 05:41:00,
2013-08-19 22:46:00,64.6,63.7,29.92,North,0,0.0,3.0,97,0.00,,,0.00,meteohub,2013-08-20 05:46:00,
2013-08-19 22:51:00,64.4,63.9,29.92,North,0,1.0,2.0,98,0.00,,,0.00,meteohub,2013-08-20 05:51:00,
2013-08-19 22:56:00,64.4,63.9,29.92,North,0,2.0,2.0,98,0.00,,,0.00,meteohub,2013-08-20 05:56:00,
2013-08-19 23:01:00,64.2,63.7,29.92,North,0,0.0,2.0,98,0.00,,,0.00,meteohub,2013-08-20 06:01:00,
2013-08-19 23:06:00,64.0,63.5,29.92,North,0,0.0,2.0,98,0.00,,,0.00,meteohub,2013-08-20 06:06:00,
2013-08-19 23:11:00,64.0,63.7,29.92,North,0,0.0,2.0,99,0.00,,,0.00,meteohub,2013-08-20 06:11:00,
2013-08-19 23:16:00,63.9,63.5,29.92,North,0,0.0,2.0,99,0.00,,,0.00,meteohub,2013-08-20 06:16:00,
2013-08-19 23:21:00,63.9,63.5,29.92,North,0,2.0,2.0,99,0.00,,,0.00,meteohub,2013-08-20 06:21:00,
2013-08-19 23:26:00,63.9,63.5,29.92,North,0,0.0,2.0,99,0.00,,,0.00,meteohub,2013-08-20 06:26:00,
2013-08-19 23:31:00,63.7,63.3,29.92,North,0,1.0,2.0,99,0.00,,,0.00,meteohub,2013-08-20 06:31:00,
2013-08-19 23:36:00,63.7,63.3,29.92,North,0,0.0,2.0,99,0.00,,,0.00,meteohub,2013-08-20 06:36:00,
2013-08-19 23:41:00,63.7,63.3,29.92,North,0,2.0,2.0,99,0.00,,,0.00,meteohub,2013-08-20 06:41:00,
2013-08-19 23:46:00,63.7,63.3,29.92,North,0,1.0,2.0,99,0.00,,,0.00,meteohub,2013-08-20 06:46:00,
2013-08-19 23:51:00,63.7,63.3,29.92,North,0,0.0,2.0,99,0.00,,,0.00,meteohub,2013-08-20 06:51:00,
2013-08-19 23:56:00,63.7,63.3,29.92,North,0,0.0,2.0,99,0.00,,,0.00,meteohub,2013-08-20 06:56:00,